Location: Unspecified
(40.7945°N, 111.1337°W)
Time: 11:27:13
(UTC-06:00)

Vanguard 1 - Pass Details

Date: 02 July 2019
Orbit: 655 x 3829 km, 34.2° (Epoch: 22 August)

Event Time Altitude Azimuth Distance (km) Brightness Sun altitude
Rises 07:30:56 0° 282° (WNW) 6,959 13.9 15.2°
Reaches altitude 10° 07:36:58 10° 274° (W) 5,404 13.3 16.3°
Maximum altitude 07:48:20 29° 223° (SW) 2,941 12.2 18.4°
Drops below altitude 10° 07:55:28 10° 166° (SSE) 3,308 12.8 19.7°
Sets 07:58:11 0° 154° (SSE) 3,950 13.3 20.2°
